Change the Weather History Date:

Tuesday, August 27, 2013

  Actual Average Record
Temperature  
Mean Temperature 65 °F 64 °F  
Max Temperature 73 °F 73 °F 95 °F (1962)
Min Temperature 56 °F 56 °F 43 °F (1938)
Degree Days  
Heating Degree Days 0 2  
Month to date heating degree days 35 54  
Since 1 June heating degree days 203 245  
Since 1 July heating degree days 105 132  
Cooling Degree Days 0 1  
Month to date cooling degree days 22 24  
Year to date cooling degree days 69 70  
Since 1 June cooling degree days 59 54  
Growing Degree Days 14 (Base 50)    
Moisture  
Dew Point 55 °F    
Average Humidity 67    
Maximum Humidity 80    
Minimum Humidity 53    
Precipitation  
Precipitation 0.00 in 0.00 in 0.03 in (1949)
Month to date precipitation 0.02 0.03  
Year to date precipitation 2.35 8.75  
Since 1 July precipitation 0.02 0.03  
Sea Level Pressure  
Sea Level Pressure 29.91 in    
Wind  
Wind Speed 8 mph (WNW)    
Max Wind Speed 17 mph    
Max Gust Speed 22 mph    
Visibility 10 miles    
Events      
T = Trace of Precipitation, MM = Missing Value Source: NWS Daily Summary

Daily Weather History Graph

Daily Weather History Graph

Search for Another Location

Airport or City:

Trip Planner

Search our weather history database for the weather conditions in past years. The results will help you decide how hot, cold, wet, or windy it might be!

Date:

Astronomy

Aug. 27, 2013 Rise Set
Actual Time 6:33 AM PDT 7:41 PM PDT
Civil Twilight 6:07 AM PDT 8:07 PM PDT
Nautical Twilight 5:35 AM PDT 8:39 PM PDT
Astronomical Twilight 5:02 AM PDT 9:12 PM PDT
Moon 11:50 PM PDT (8/27) 1:24 PM PDT (8/27)
Length of Visible Light 14h 00m
Length of Day
13h 07m
Waning Gibbous, 56% of the Moon is Illuminated
Aug 27
Waning Gibbous
Aug 28
Last Quarter
Sep 5
New
Sep 12
First Quarter
Sep 19
Full

Hourly Weather History & Observations

Time (PDT) Temp. Dew Point Humidity Pressure Visibility Wind Dir Wind Speed Gust Speed Precip Events Conditions
12:53 AM 61.0 °F 53.1 °F 75% 29.94 in 10.0 mi NW 5.8 mph - N/A   Clear
1:53 AM 60.1 °F 53.1 °F 78% 29.94 in 10.0 mi WNW 4.6 mph - N/A   Clear
2:53 AM 60.1 °F 53.1 °F 78% 29.92 in 10.0 mi NW 4.6 mph - N/A   Clear
3:53 AM 59.0 °F 53.1 °F 81% 29.92 in 10.0 mi NW 3.5 mph - N/A   Clear
4:53 AM 59.0 °F 53.1 °F 81% 29.92 in 10.0 mi Calm Calm - N/A   Clear
5:53 AM 57.0 °F 51.1 °F 81% 29.92 in 10.0 mi Calm Calm - N/A   Clear
6:53 AM 57.0 °F 52.0 °F 83% 29.92 in 10.0 mi Calm Calm - N/A   Clear
7:53 AM 59.0 °F 53.1 °F 81% 29.93 in 9.0 mi Calm Calm - N/A   Clear
8:53 AM 62.1 °F 55.0 °F 78% 29.93 in 9.0 mi Calm Calm - N/A   Clear
9:53 AM 66.0 °F 55.0 °F 68% 29.93 in 10.0 mi West 4.6 mph - N/A   Clear
10:53 AM 72.0 °F 55.0 °F 55% 29.92 in 10.0 mi West 5.8 mph - N/A   Clear
11:53 AM 71.1 °F 55.0 °F 57% 29.91 in 10.0 mi West 11.5 mph - N/A   Clear
12:53 PM 72.0 °F 54.0 °F 53% 29.90 in 10.0 mi West 13.8 mph - N/A   Clear
1:53 PM 69.1 °F 55.9 °F 63% 29.90 in 10.0 mi West 16.1 mph - N/A   Clear
2:53 PM 70.0 °F 57.0 °F 63% 29.88 in 10.0 mi West 17.3 mph - N/A   Clear
3:53 PM 69.1 °F 57.0 °F 65% 29.88 in 10.0 mi WNW 15.0 mph - N/A   Clear
4:53 PM 68.0 °F 57.0 °F 68% 29.88 in 10.0 mi WSW 15.0 mph - N/A   Clear
5:53 PM 70.0 °F 57.0 °F 63% 29.88 in 10.0 mi West 11.5 mph - N/A   Clear
6:53 PM 68.0 °F 55.9 °F 65% 29.88 in 10.0 mi West 9.2 mph 18.4 mph N/A   Clear
7:53 PM 66.0 °F 57.0 °F 73% 29.89 in 10.0 mi West 9.2 mph - N/A   Clear
8:53 PM 64.9 °F 57.0 °F 75% 29.89 in 10.0 mi WNW 6.9 mph - N/A   Clear
9:53 PM 64.0 °F 57.0 °F 78% 29.90 in 10.0 mi NNW 10.4 mph - N/A   Clear
10:53 PM 64.0 °F 57.0 °F 78% 29.90 in 10.0 mi NW 8.1 mph - N/A   Clear
11:53 PM 63.0 °F 55.9 °F 78% 29.90 in 10.0 mi NW 6.9 mph - N/A   Clear